[Iaude] MPEC T166: 2023 TB6 [a=2.42,e=0.49,i=3.4,H=23.7]
    mpec at marsden.cfa.harvard.edu 
    mpec at marsden.cfa.harvard.edu
       
    Wed Oct 11 17:33:55 EDT 2023
    
    
  
M.P.E.C. 2023-T166                             Issued 2023 October 11, 21:32 UT
     The Minor Planet Electronic Circulars contain information on unusual
         minor planets, routine data on comets and natural satellites,
         and occasional editorial announcements.  They are published
    on behalf of Division F of the International Astronomical Union by the
          Minor Planet Center, Smithsonian Astrophysical Observatory,
                          Cambridge, MA 02138, U.S.A.
			  
             Prepared using the Tamkin Foundation Computer Network
                              MPC at CFA.HARVARD.EDU
            URL https://www.minorplanetcenter.net/    ISSN 1523-6714
                                    2023 TB6                                    
Observations:
     K23T06B* C2023 10 09.30454923 53 48.950+13 32 09.41         22.47wXET166F52
     K23T06B  C2023 10 09.31699523 53 48.827+13 32 16.13         22.14wXET166F52
     K23T06B  C2023 10 09.32944823 53 48.729+13 32 23.06         22.52wXET166F52
     K23T06B  C2023 10 09.34198723 53 48.599+13 32 29.75         22.65wXET166F52
     K23T06B  C2023 10 09.49399723 53 47.231+13 33 48.41         22.71GVET166F51
     K23T06B  C2023 10 09.49481123 53 47.205+13 33 48.80         22.46GVET166F51
     K23T06B  C2023 10 09.51708123 53 47.053+13 33 59.89         22.51GVET166F52
     K23T06B  C2023 10 09.51789223 53 47.073+13 34 00.44         22.47GVET166F52
     K23T06B KC2023 10 10.13342523 53 50.28 +13 39 15.8          22.6 VuET166H21
     K23T06B KC2023 10 10.14220623 53 50.21 +13 39 20.3          22.3 VuET166H21
     K23T06B KC2023 10 11.13537923 53 54.15 +13 47 55.0          22.7 VuET166H21
     K23T06B KC2023 10 11.14357323 53 54.15 +13 47 58.9          22.4 VuET166H21
Observer details:
F51 Pan-STARRS 1, Haleakala.  Observers J. Bulger, K. Chambers, T. Lowe, P.
    Minguez, A. Schultz, I. Smith.  Measurers S. Chastel, J. Fairlamb, M.
    Huber, Y. Ramanjooloo, R. Wainscoat, R. Weryk.  1.8-m Ritchey-Chretien +
    CCD.
F52 Pan-STARRS 2, Haleakala.  Observers J. Bulger, T. Lowe, P. Minguez, A.
    Schultz, I. Smith, K. Chambers.  Measurers K. Chambers, T. de Boer, J.
    Bulger, J. Fairlamb, H. Gao, M. Huber, C.-C. Lin, T. Lowe, E. Magnier, P.
    Minguez, Y. Ramanjooloo, A. Schultz, I. Smith, R. Wainscoat, R. Weryk, S.
    Chastel.  1.8-m Ritchey-Chretien + CCD.
H21 Astronomical Research Observatory, Westfield.  Observer R. Holmes.
    Measurers T. Linder, R. Holmes, L. Horn.  1.3-m f/4.0 astrograph + CCD.
Orbital elements:
2023 TB6                                                 Earth MOID = 0.2607 AU
Epoch 2023 Sept. 13.0 TT = JDT 2460200.5                Bell                    
M 343.16853              (2000.0)            P               Q                  
n   0.26243516     Peri.   98.84553     +0.71269219     -0.69979623             
a   2.4161360      Node   305.58300     +0.61786135     +0.65899227             
e   0.4851182      Incl.    3.42095     +0.33214033     +0.27570713             
P   3.76           H   23.73          G   0.15           U   9                  
Residuals in seconds of arc
231009 F52  0.2+  0.2-    231009 F51  0.2+  0.0     231010 H21  0.0   0.1+
231009 F52  0.1+  0.2-    231009 F51  0.1-  0.0     231010 H21  0.3-  0.0
231009 F52  0.3+  0.0     231009 F52  0.3-  0.0     231011 H21  0.2-  0.2+
231009 F52  0.1+  0.0     231009 F52  0.1+  0.1+    231011 H21  0.3+  0.2-
Ephemeris:
2023 TB6                 a,e,i = 2.42, 0.49, 3                   q = 1.2440
Date    TT    R. A. (2000) Decl.     Delta      r    Elong.  Phase     V
2023 09 11    23 57 46.2 +08 45 45   0.4305  1.4237   162.7    12.2    23.4
...
2023 09 26    23 55 27.2 +11 26 07   0.3585  1.3564   169.0     8.1    22.7
...
2023 10 04    23 54 05.4 +12 44 09   0.3324  1.3257   166.2    10.4    22.6
...
2023 10 10    23 53 49.4 +13 38 18   0.3180  1.3054   162.3    13.5    22.6
2023 10 11    23 53 53.0 +13 46 57   0.3160  1.3022   161.6    14.0    22.6
2023 10 12    23 53 58.9 +13 55 29   0.3142  1.2992   160.9    14.6    22.6
...
2023 10 18    23 55 27.9 +14 44 51   0.3053  1.2824   156.5    18.0    22.6
...
2023 10 26    00 00 25.2 +15 46 58   0.2994  1.2645   151.0    22.4    22.7
...
2023 11 10    00 20 29.2 +17 36 54   0.3045  1.2458   142.4    29.0    22.9
M. P. C. Staff               (C) Copyright 2023 MPC           M.P.E.C. 2023-T166
    
    
More information about the Iaude
mailing list